QPF
0.00 0.02 0.08 0.13 0.16 0.47 0.67 0.44 0.20 0.09 0.03 0.04 0.05 0.03 0.01 0.00 0.00 0.00 0.00 0.01 0.00 0.01 0.02 0.01 0.03 0.05 0.05 0.04 0.02 0.02 0.01 0.01 0.00 0.01 0.00 0.00 0.00 0.00 0.00 0.00 0.00 0.00 0.00
0.00 0.01 0.01 0.02 0.05 0.13 0.21 0.22 0.20 0.19 0.08 0.06 0.07 0.06 0.04 0.01 0.02 0.05 0.10 0.07 0.02 0.01 0.02 0.03 0.01 0.03 0.02 0.02 0.02 0.02 0.01 0.01 0.00 0.01 0.01 0.00 0.00 0.00 0.00 0.00 0.00 0.00 0.00
0.00 0.00 0.00 0.00 0.01 0.04 0.09 0.13 0.13 0.15 0.08 0.04 0.04 0.07 0.10 0.13 0.18 0.25 0.28 0.20 0.09 0.02 0.01 0.01 0.00 0.01 0.00 0.01 0.02 0.02 0.03 0.02 0.01 0.00 0.01 0.01 0.00 0.00 0.00 0.00 0.00 0.00 0.00
0.00 0.00 0.00 0.00 0.00 0.01 0.02 0.03 0.06 0.08 0.08 0.06 0.06 0.11 0.18 0.23 0.24 0.18 0.15 0.09 0.03 0.01 0.00 0.00 0.01 0.00 0.00 0.01 0.01 0.01 0.02 0.02 0.01 0.00 0.00 0.00 0.00 0.01 0.00 0.00 0.00 0.00 0.00
0.00 0.00 0.00 0.00 0.00 0.00 0.01 0.02 0.02 0.03 0.03 0.04 0.06 0.10 0.09 0.07 0.04 0.03 0.01 0.01 0.00 0.00 0.00 0.00 0.01 0.01 0.01 0.01 0.01 0.01 0.01 0.01 0.01 0.00 0.00 0.00 0.00 0.00 0.01 0.00 0.00 0.00 0.00
0.00 0.00 0.00 0.00 0.00 0.00 0.01 0.01 0.01 0.01 0.01 0.01 0.01 0.01 0.01 0.01 0.00 0.00 0.00 0.00 0.00 0.00 0.00 0.00 0.00 0.01 0.01 0.01 0.01 0.01 0.00 0.01 0.01 0.01 0.01 0.01 0.01 0.01 0.01 0.01 0.00 0.00 0.00
0.00 0.00 0.00 0.00 0.00 0.00 0.00 0.00 0.00 0.00 0.00 0.00 0.00 0.00 0.00 0.00 0.00 0.00 0.00 0.00 0.00 0.00 0.00 0.00 0.00 0.00 0.01 0.00 0.00 0.00 0.01 0.01 0.01 0.02 0.02 0.02 0.02 0.01 0.02 0.02 0.02 0.01 0.00
0.00 0.00 0.00 0.00 0.00 0.00 0.00 0.00 0.00 0.00 0.00 0.00 0.00 0.00 0.00 0.00 0.00 0.00 0.00 0.00 0.00 0.00 0.00 0.00 0.00 0.00 0.00 0.00 0.01 0.01 0.01 0.01 0.01 0.01 0.02 0.03 0.03 0.04 0.05 0.06 0.06 0.05 0.03
0.00 0.00 0.00 0.00 0.00 0.00 0.00 0.00 0.00 0.00 0.00 0.00 0.00 0.00 0.00 0.00 0.00 0.00 0.00 0.00 0.00 0.00 0.00 0.00 0.01 0.01 0.02 0.02 0.02 0.02 0.02 0.02 0.02 0.02 0.03 0.03 0.04 0.04 0.05 0.05 0.05 0.06 0.05
0.00 0.00 0.00 0.00 0.00 0.00 0.00 0.00 0.00 0.00 0.00 0.00 0.00 0.00 0.00 0.00 0.00 0.00 0.00 0.00 0.01 0.01 0.01 0.02 0.02 0.02 0.02 0.02 0.02 0.02 0.03 0.03 0.03 0.04 0.04 0.04 0.04 0.04 0.04 0.05 0.06 0.09 0.11
0.00 0.00 0.00 0.00 0.00 0.00 0.00 0.00 0.00 0.00 0.00 0.00 0.00 0.00 0.00 0.00 0.00 0.00 0.01 0.01 0.01 0.02 0.02 0.03 0.03 0.02 0.02 0.02 0.03 0.04 0.04 0.03 0.03 0.03 0.03 0.02 0.02 0.03 0.04 0.05 0.06 0.07 0.09
0.00 0.00 0.00 0.00 0.00 0.00 0.00 0.00 0.00 0.00 0.00 0.00 0.00 0.00 0.00 0.01 0.01 0.01 0.01 0.02 0.02 0.02 0.03 0.03 0.03 0.02 0.02 0.03 0.04 0.04 0.03 0.03 0.02 0.02 0.03 0.03 0.03 0.03 0.03 0.04 0.05 0.06 0.08
0.00 0.00 0.00 0.00 0.00 0.00 0.00 0.00 0.00 0.00 0.00 0.00 0.00 0.00 0.00 0.01 0.01 0.02 0.02 0.02 0.03 0.03 0.03 0.03 0.02 0.02 0.03 0.03 0.03 0.02 0.01 0.02 0.02 0.03 0.04 0.05 0.05 0.03 0.03 0.04 0.05 0.06 0.07
0.00 0.00 0.00 0.00 0.00 0.00 0.00 0.00 0.00 0.00 0.00 0.00 0.00 0.00 0.01 0.01 0.01 0.02 0.03 0.03 0.03 0.03 0.02 0.02 0.01 0.01 0.02 0.02 0.01 0.01 0.01 0.02 0.02 0.03 0.05 0.06 0.05 0.04 0.05 0.06 0.07 0.08 0.08
0.00 0.00 0.00 0.00 0.00 0.00 0.00 0.00 0.00 0.00 0.00 0.00 0.01 0.01 0.01 0.01 0.02 0.03 0.03 0.02 0.01 0.01 0.01 0.01 0.01 0.01 0.01 0.00 0.00 0.00 0.00 0.01 0.02 0.03 0.05 0.05 0.04 0.06 0.06 0.05 0.05 0.07 0.08
0.00 0.00 0.00 0.00 0.00 0.00 0.00 0.00 0.00 0.00 0.00 0.01 0.01 0.01 0.01 0.01 0.02 0.02 0.01 0.01 0.00 0.00 0.01 0.01 0.01 0.01 0.00 0.00 0.00 0.00 0.00 0.01 0.02 0.03 0.04 0.02 0.02 0.02 0.02 0.03 0.05 0.06 0.06
0.00 0.00 0.00 0.00 0.00 0.00 0.00 0.00 0.00 0.00 0.00 0.01 0.01 0.01 0.00 0.01 0.01 0.00 0.00 0.00 0.01 0.01 0.01 0.01 0.00 0.01 0.01 0.00 0.00 0.00 0.00 0.01 0.02 0.04 0.02 0.01 0.01 0.01 0.01 0.02 0.05 0.08 0.09
0.00 0.00 0.00 0.00 0.00 0.00 0.00 0.00 0.00 0.00 0.00 0.00 0.00 0.00 0.00 0.00 0.00 0.00 0.01 0.01 0.01 0.01 0.01 0.01 0.00 0.01 0.01 0.00 0.00 0.00 0.00 0.01 0.02 0.02 0.01 0.01 0.01 0.01 0.02 0.05 0.10 0.10 0.09
0.00 0.00 0.00 0.00 0.00 0.00 0.00 0.00 0.00 0.00 0.00 0.00 0.00 0.00 0.00 0.00 0.00 0.01 0.01 0.01 0.01 0.01 0.01 0.01 0.01 0.01 0.01 0.00 0.00 0.00 0.00 0.00 0.01 0.01 0.01 0.01 0.01 0.01 0.04 0.08 0.12 0.13 0.15
0.00 0.00 0.00 0.00 0.00 0.00 0.00 0.00 0.00 0.00 0.00 0.00 0.00 0.00 0.00 0.00 0.00 0.01 0.01 0.01 0.01 0.01 0.00 0.00 0.01 0.01 0.00 0.00 0.00 0.00 0.00 0.00 0.00 0.01 0.01 0.01 0.02 0.03 0.05 0.09 0.13 0.15 0.18
0.00 0.00 0.00 0.00 0.00 0.00 0.00 0.00 0.00 0.00 0.00 0.00 0.00 0.00 0.00 0.00 0.00 0.00 0.01 0.01 0.00 0.00 0.00 0.00 0.01 0.00 0.00 0.00 0.00 0.00 0.00 0.00 0.00 0.01 0.01 0.01 0.04 0.04 0.05 0.09 0.13 0.18 0.18
0.00 0.00 0.00 0.00 0.00 0.00 0.00 0.00 0.00 0.00 0.00 0.00 0.00 0.00 0.00 0.00 0.00 0.00 0.00 0.00 0.00 0.00 0.00 0.00 0.00 0.00 0.00 0.00 0.00 0.00 0.00 0.00 0.00 0.01 0.01 0.03 0.05 0.05 0.06 0.09 0.14 0.18 0.19
0.00 0.00 0.00 0.00 0.00 0.00 0.00 0.00 0.00 0.00 0.00 0.00 0.00 0.00 0.00 0.00 0.00 0.00 0.00 0.00 0.00 0.00 0.00 0.00 0.00 0.00 0.00 0.00 0.00 0.00 0.00 0.00 0.00 0.01 0.04 0.06 0.05 0.06 0.09 0.13 0.17 0.19 0.17
0.00 0.00 0.00 0.00 0.00 0.00 0.00 0.00 0.00 0.00 0.00 0.00 0.00 0.00 0.00 0.00 0.00 0.00 0.00 0.00 0.00 0.00 0.00 0.00 0.00 0.00 0.01 0.01 0.01 0.00 0.00 0.00 0.00 0.01 0.06 0.08 0.06 0.08 0.14 0.18 0.19 0.20 0.20
0.00 0.00 0.00 0.00 0.00 0.00 0.00 0.00 0.00 0.00 0.00 0.00 0.00 0.00 0.00 0.00 0.00 0.00 0.00 0.00 0.00 0.00 0.00 0.00 0.00 0.01 0.01 0.01 0.00 0.00 0.00 0.00 0.00 0.02 0.04 0.03 0.03 0.06 0.12 0.18 0.20 0.19 0.21
0.00 0.00 0.00 0.00 0.00 0.00 0.00 0.00 0.00 0.00 0.00 0.00 0.00 0.00 0.00 0.00 0.00 0.00 0.00 0.00 0.00 0.00 0.00 0.00 0.00 0.00 0.00 0.00 0.00 0.00 0.00 0.00 0.01 0.02 0.04 0.05 0.05 0.06 0.10 0.17 0.22 0.21 0.19
MSLP
1010.02 1010.69 1011.39 1012.09 1012.76 1013.37 1013.92 1014.39 1014.77 1015.04 1015.20 1015.25 1015.22 1015.12 1014.99 1014.85 1014.74 1014.68 1014.68 1014.74 1014.86 1014.99 1015.13 1015.25 1015.34 1015.39 1015.40 1015.39 1015.36 1015.31 1015.23 1015.12 1014.96 1014.74 1014.44 1014.07 1013.64 1013.14 1012.62 1012.10 1011.62 1011.19 1010.85
1011.03 1011.71 1012.39 1013.04 1013.64 1014.17 1014.63 1015.03 1015.34 1015.58 1015.73 1015.79 1015.77 1015.68 1015.54 1015.38 1015.23 1015.11 1015.05 1015.04 1015.10 1015.19 1015.30 1015.41 1015.50 1015.57 1015.59 1015.59 1015.55 1015.48 1015.38 1015.24 1015.05 1014.79 1014.46 1014.05 1013.58 1013.05 1012.49 1011.93 1011.40 1010.93 1010.53
1011.95 1012.63 1013.28 1013.88 1014.39 1014.84 1015.22 1015.54 1015.80 1016.02 1016.17 1016.26 1016.28 1016.23 1016.11 1015.96 1015.80 1015.64 1015.53 1015.47 1015.45 1015.49 1015.56 1015.64 1015.72 1015.78 1015.81 1015.80 1015.76 1015.69 1015.57 1015.40 1015.19 1014.90 1014.55 1014.13 1013.64 1013.10 1012.53 1011.95 1011.39 1010.88 1010.44
1012.74 1013.42 1014.04 1014.58 1015.02 1015.39 1015.69 1015.95 1016.17 1016.37 1016.55 1016.68 1016.75 1016.76 1016.70 1016.59 1016.43 1016.26 1016.11 1015.99 1015.91 1015.88 1015.90 1015.93 1015.98 1016.02 1016.04 1016.03 1015.98 1015.90 1015.77 1015.59 1015.37 1015.08 1014.73 1014.31 1013.84 1013.31 1012.75 1012.18 1011.61 1011.07 1010.58
1013.38 1014.06 1014.66 1015.16 1015.55 1015.85 1016.08 1016.29 1016.48 1016.68 1016.87 1017.05 1017.19 1017.27 1017.28 1017.21 1017.09 1016.92 1016.74 1016.57 1016.43 1016.33 1016.27 1016.25 1016.25 1016.26 1016.26 1016.24 1016.18 1016.09 1015.96 1015.78 1015.56 1015.28 1014.95 1014.56 1014.12 1013.64 1013.11 1012.56 1012.01 1011.45 1010.91
1013.87 1014.56 1015.16 1015.64 1015.99 1016.25 1016.44 1016.60 1016.77 1016.97 1017.18 1017.40 1017.60 1017.75 1017.82 1017.81 1017.71 1017.55 1017.35 1017.14 1016.94 1016.77 1016.64 1016.56 1016.51 1016.47 1016.44 1016.39 1016.33 1016.23 1016.09 1015.92 1015.70 1015.44 1015.15 1014.80 1014.42 1013.99 1013.52 1013.02 1012.48 1011.93 1011.36
1014.22 1014.94 1015.56 1016.04 1016.39 1016.63 1016.79 1016.93 1017.08 1017.27 1017.49 1017.74 1017.98 1018.17 1018.30 1018.32 1018.25 1018.10 1017.88 1017.63 1017.38 1017.15 1016.95 1016.81 1016.70 1016.62 1016.55 1016.48 1016.39 1016.28 1016.13 1015.96 1015.75 1015.51 1015.24 1014.95 1014.62 1014.26 1013.86 1013.42 1012.92 1012.39 1011.81
1014.46 1015.22 1015.87 1016.39 1016.75 1017.00 1017.16 1017.28 1017.42 1017.60 1017.82 1018.07 1018.32 1018.54 1018.68 1018.73 1018.67 1018.52 1018.28 1018.00 1017.71 1017.43 1017.18 1016.98 1016.82 1016.70 1016.59 1016.48 1016.37 1016.23 1016.06 1015.87 1015.65 1015.42 1015.18 1014.92 1014.65 1014.36 1014.03 1013.64 1013.20 1012.70 1012.14
1014.62 1015.43 1016.13 1016.68 1017.08 1017.35 1017.53 1017.66 1017.79 1017.95 1018.15 1018.39 1018.62 1018.83 1018.97 1019.01 1018.95 1018.78 1018.53 1018.23 1017.91 1017.59 1017.31 1017.07 1016.88 1016.72 1016.57 1016.43 1016.28 1016.09 1015.89 1015.66 1015.42 1015.17 1014.93 1014.69 1014.46 1014.21 1013.94 1013.62 1013.23 1012.77 1012.24
1014.73 1015.59 1016.34 1016.94 1017.39 1017.69 1017.89 1018.04 1018.16 1018.31 1018.49 1018.69 1018.89 1019.06 1019.16 1019.18 1019.09 1018.90 1018.64 1018.32 1017.98 1017.66 1017.36 1017.11 1016.90 1016.71 1016.54 1016.36 1016.16 1015.92 1015.66 1015.37 1015.08 1014.79 1014.52 1014.27 1014.05 1013.83 1013.59 1013.31 1012.97 1012.56 1012.07
1014.84 1015.73 1016.52 1017.17 1017.66 1018.01 1018.24 1018.41 1018.54 1018.68 1018.82 1018.97 1019.12 1019.23 1019.28 1019.24 1019.12 1018.91 1018.63 1018.31 1017.97 1017.66 1017.37 1017.13 1016.91 1016.72 1016.52 1016.31 1016.05 1015.76 1015.42 1015.06 1014.69 1014.34 1014.02 1013.73 1013.48 1013.24 1013.01 1012.75 1012.44 1012.06 1011.61
1015.01 1015.91 1016.72 1017.39 1017.91 1018.30 1018.57 1018.76 1018.90 1019.02 1019.13 1019.24 1019.32 1019.36 1019.33 1019.24 1019.07 1018.83 1018.54 1018.22 1017.91 1017.62 1017.37 1017.15 1016.95 1016.76 1016.56 1016.31 1016.01 1015.65 1015.24 1014.80 1014.34 1013.90 1013.50 1013.14 1012.84 1012.56 1012.30 1012.02 1011.71 1011.34 1010.91
1015.28 1016.17 1016.97 1017.64 1018.17 1018.58 1018.87 1019.08 1019.23 1019.34 1019.42 1019.47 1019.48 1019.44 1019.35 1019.19 1018.97 1018.70 1018.40 1018.10 1017.82 1017.57 1017.36 1017.18 1017.01 1016.84 1016.63 1016.36 1016.03 1015.61 1015.13 1014.61 1014.06 1013.54 1013.04 1012.60 1012.21 1011.87 1011.55 1011.22 1010.87 1010.48 1010.05
1015.69 1016.54 1017.29 1017.94 1018.46 1018.86 1019.17 1019.38 1019.53 1019.62 1019.67 1019.66 1019.61 1019.50 1019.33 1019.11 1018.84 1018.54 1018.24 1017.96 1017.71 1017.50 1017.34 1017.20 1017.08 1016.92 1016.72 1016.44 1016.08 1015.62 1015.09 1014.50 1013.88 1013.27 1012.69 1012.16 1011.68 1011.24 1010.83 1010.43 1010.01 1009.58 1009.13
1016.24 1017.02 1017.71 1018.29 1018.78 1019.16 1019.45 1019.66 1019.79 1019.86 1019.87 1019.81 1019.69 1019.51 1019.28 1018.99 1018.68 1018.36 1018.05 1017.79 1017.57 1017.40 1017.29 1017.19 1017.10 1016.97 1016.79 1016.51 1016.13 1015.65 1015.08 1014.44 1013.76 1013.09 1012.44 1011.82 1011.25 1010.72 1010.22 1009.72 1009.23 1008.72 1008.23
1016.90 1017.59 1018.20 1018.71 1019.13 1019.47 1019.72 1019.91 1020.01 1020.05 1020.01 1019.91 1019.72 1019.48 1019.18 1018.84 1018.49 1018.15 1017.84 1017.59 1017.39 1017.26 1017.18 1017.12 1017.06 1016.96 1016.78 1016.51 1016.13 1015.64 1015.06 1014.40 1013.69 1012.97 1012.26 1011.58 1010.93 1010.32 1009.72 1009.13 1008.55 1007.98 1007.44
1017.60 1018.21 1018.72 1019.15 1019.49 1019.77 1019.97 1020.11 1020.18 1020.17 1020.09 1019.92 1019.69 1019.38 1019.03 1018.65 1018.27 1017.91 1017.60 1017.36 1017.18 1017.08 1017.02 1016.99 1016.95 1016.87 1016.70 1016.44 1016.07 1015.58 1015.00 1014.33 1013.62 1012.88 1012.14 1011.41 1010.70 1010.01 1009.34 1008.67 1008.02 1007.39 1006.82
1018.29 1018.81 1019.23 1019.56 1019.83 1020.03 1020.17 1020.25 1020.27 1020.21 1020.07 1019.86 1019.57 1019.22 1018.82 1018.41 1018.01 1017.65 1017.34 1017.11 1016.96 1016.88 1016.84 1016.83 1016.80 1016.72 1016.57 1016.32 1015.96 1015.48 1014.91 1014.25 1013.53 1012.79 1012.03 1011.27 1010.52 1009.78 1009.05 1008.34 1007.64 1006.99 1006.40
1018.88 1019.31 1019.65 1019.90 1020.08 1020.21 1020.29 1020.31 1020.27 1020.16 1019.97 1019.70 1019.37 1018.98 1018.57 1018.14 1017.74 1017.38 1017.10 1016.89 1016.76 1016.70 1016.68 1016.68 1016.66 1016.59 1016.44 1016.20 1015.84 1015.38 1014.81 1014.16 1013.45 1012.70 1011.93 1011.15 1010.38 1009.61 1008.86 1008.12 1007.42 1006.77 1006.20
1019.31 1019.68 1019.95 1020.13 1020.24 1020.31 1020.32 1020.28 1020.18 1020.01 1019.77 1019.47 1019.11 1018.70 1018.28 1017.86 1017.48 1017.15 1016.90 1016.72 1016.63 1016.60 1016.60 1016.62 1016.61 1016.54 1016.40 1016.15 1015.80 1015.34 1014.77 1014.12 1013.41 1012.65 1011.87 1011.07 1010.28 1009.50 1008.75 1008.02 1007.35 1006.74 1006.23
1019.59 1019.90 1020.11 1020.23 1020.29 1020.30 1020.25 1020.16 1020.00 1019.79 1019.51 1019.18 1018.80 1018.40 1017.99 1017.60 1017.26 1016.98 1016.78 1016.66 1016.61 1016.62 1016.65 1016.69 1016.69 1016.64 1016.49 1016.24 1015.88 1015.41 1014.84 1014.17 1013.45 1012.67 1011.87 1011.05 1010.25 1009.47 1008.73 1008.04 1007.42 1006.89 1006.47
1019.72 1019.99 1020.15 1020.24 1020.25 1020.21 1020.11 1019.97 1019.77 1019.52 1019.21 1018.86 1018.49 1018.10 1017.72 1017.39 1017.11 1016.90 1016.77 1016.72 1016.73 1016.79 1016.87 1016.93 1016.95 1016.89 1016.75 1016.49 1016.12 1015.63 1015.03 1014.34 1013.59 1012.78 1011.96 1011.12 1010.31 1009.54 1008.82 1008.19 1007.64 1007.21 1006.90
1019.77 1020.00 1020.12 1020.17 1020.15 1020.07 1019.94 1019.75 1019.52 1019.23 1018.91 1018.56 1018.20 1017.84 1017.52 1017.25 1017.05 1016.92 1016.88 1016.91 1016.99 1017.11 1017.23 1017.32 1017.36 1017.31 1017.15 1016.88 1016.49 1015.97 1015.35 1014.63 1013.84 1013.00 1012.15 1011.30 1010.48 1009.72 1009.05 1008.47 1008.01 1007.68 1007.49
1019.78 1019.98 1020.08 1020.09 1020.04 1019.93 1019.77 1019.55 1019.28 1018.98 1018.65 1018.31 1017.98 1017.67 1017.41 1017.22 1017.10 1017.07 1017.12 1017.22 1017.38 1017.55 1017.71 1017.83 1017.88 1017.82 1017.66 1017.37 1016.95 1016.40 1015.75 1015.00 1014.18 1013.32 1012.44 1011.59 1010.77 1010.04 1009.40 1008.89 1008.51 1008.28 1008.20
1019.82 1019.98 1020.05 1020.04 1019.97 1019.83 1019.64 1019.39 1019.11 1018.80 1018.47 1018.15 1017.86 1017.61 1017.42 1017.31 1017.28 1017.34 1017.47 1017.65 1017.87 1018.09 1018.28 1018.41 1018.45 1018.38 1018.20 1017.88 1017.43 1016.86 1016.17 1015.40 1014.56 1013.69 1012.82 1011.97 1011.18 1010.48 1009.90 1009.45 1009.15 1009.00 1009.00
1019.90 1020.03 1020.08 1020.05 1019.95 1019.79 1019.57 1019.32 1019.02 1018.71 1018.40 1018.12 1017.87 1017.68 1017.57 1017.54 1017.60 1017.74 1017.94 1018.18 1018.44 1018.68 1018.88 1019.00 1019.03 1018.93 1018.71 1018.35 1017.87 1017.27 1016.57 1015.79 1014.95 1014.09 1013.24 1012.44 1011.69 1011.04 1010.52 1010.14 1009.90 1009.81 1009.86
Thickness
5766 5763 5754 5741 5732 5721 5706 5694 5691 5690 5692 5693 5691 5687 5685 5685 5682 5678 5671 5664 5658 5654 5650 5646 5643 5641 5638 5634 5630 5626 5622 5619 5618 5613 5612 5616 5619 5618 5616 5614 5612 5612 5611
5754 5750 5743 5733 5725 5713 5701 5692 5685 5681 5681 5679 5677 5674 5671 5669 5665 5660 5653 5647 5643 5641 5639 5635 5630 5627 5623 5620 5615 5609 5603 5602 5601 5594 5590 5591 5597 5600 5601 5599 5596 5595 5593
5740 5736 5731 5725 5717 5706 5697 5689 5681 5676 5673 5670 5668 5663 5659 5654 5648 5642 5637 5631 5626 5626 5624 5619 5616 5613 5609 5604 5598 5592 5587 5583 5583 5578 5570 5565 5570 5576 5579 5579 5577 5575 5575
5727 5722 5717 5711 5706 5699 5693 5685 5678 5671 5666 5662 5657 5650 5642 5635 5631 5626 5623 5620 5616 5611 5606 5601 5597 5593 5588 5583 5579 5574 5566 5561 5561 5561 5556 5551 5549 5543 5549 5561 5559 5558 5559
5714 5707 5703 5698 5694 5690 5683 5676 5670 5662 5656 5651 5644 5637 5629 5624 5620 5616 5612 5608 5603 5596 5590 5584 5578 5572 5566 5560 5555 5551 5546 5541 5537 5536 5534 5530 5527 5525 5524 5538 5542 5542 5544
5703 5697 5693 5688 5682 5677 5670 5663 5656 5650 5644 5638 5631 5624 5617 5612 5608 5603 5598 5593 5586 5580 5575 5568 5560 5553 5545 5537 5530 5524 5521 5516 5513 5510 5508 5505 5505 5506 5508 5514 5520 5522 5525
5696 5689 5682 5675 5668 5662 5656 5650 5643 5637 5632 5625 5618 5611 5605 5599 5594 5588 5581 5574 5569 5563 5557 5548 5541 5533 5524 5514 5507 5501 5497 5495 5493 5491 5489 5489 5488 5489 5490 5493 5497 5500 5504
5692 5682 5673 5665 5657 5650 5643 5637 5631 5625 5619 5612 5605 5599 5593 5586 5579 5570 5561 5554 5547 5541 5533 5527 5519 5512 5503 5496 5489 5484 5482 5482 5481 5480 5479 5478 5478 5479 5479 5479 5481 5485 5491
5683 5673 5665 5655 5647 5638 5631 5625 5618 5612 5606 5599 5593 5586 5579 5570 5561 5551 5541 5531 5522 5516 5511 5506 5501 5495 5490 5484 5479 5476 5475 5474 5473 5472 5471 5471 5471 5471 5472 5472 5472 5473 5479
5674 5664 5655 5646 5638 5630 5623 5615 5608 5600 5594 5588 5580 5573 5563 5554 5543 5534 5522 5512 5503 5498 5495 5492 5489 5486 5482 5478 5475 5472 5470 5469 5467 5466 5465 5465 5466 5465 5466 5466 5467 5467 5469
5664 5655 5646 5638 5629 5621 5612 5603 5595 5587 5580 5573 5566 5557 5547 5537 5528 5520 5511 5502 5495 5490 5487 5484 5481 5479 5476 5474 5471 5468 5467 5465 5463 5461 5461 5461 5460 5460 5460 5461 5462 5464 5465
5656 5647 5637 5628 5617 5607 5598 5590 5581 5574 5566 5558 5550 5541 5531 5524 5517 5511 5504 5498 5492 5487 5483 5480 5477 5474 5471 5467 5464 5461 5459 5457 5457 5457 5458 5458 5458 5458 5456 5456 5459 5463 5465
5642 5632 5623 5614 5603 5593 5586 5577 5569 5561 5553 5545 5537 5528 5521 5515 5510 5505 5500 5494 5489 5484 5479 5475 5471 5467 5464 5459 5455 5452 5451 5451 5453 5454 5455 5456 5456 5456 5456 5457 5460 5464 5467
5627 5620 5612 5601 5591 5583 5574 5565 5557 5549 5540 5533 5525 5518 5513 5509 5506 5502 5496 5491 5485 5480 5475 5470 5464 5459 5454 5448 5443 5442 5443 5445 5448 5452 5454 5456 5456 5455 5456 5458 5461 5464 5466
5619 5611 5600 5589 5580 5571 5560 5551 5543 5535 5527 5520 5514 5510 5507 5505 5502 5497 5492 5486 5480 5475 5469 5463 5456 5449 5444 5436 5432 5432 5435 5438 5444 5448 5452 5453 5453 5454 5454 5456 5459 5462 5465
5610 5599 5588 5578 5568 5556 5546 5536 5528 5521 5514 5508 5506 5505 5503 5500 5497 5493 5488 5481 5474 5468 5461 5454 5447 5440 5433 5424 5422 5422 5425 5431 5438 5442 5445 5447 5448 5449 5452 5455 5459 5462 5467
5597 5586 5575 5565 5554 5543 5532 5523 5517 5511 5505 5502 5502 5502 5500 5496 5492 5487 5482 5475 5468 5462 5455 5447 5440 5433 5426 5418 5414 5414 5417 5424 5430 5434 5438 5440 5443 5444 5448 5453 5460 5467 5472
5582 5571 5561 5552 5542 5531 5523 5515 5509 5506 5504 5503 5501 5499 5496 5491 5486 5482 5476 5469 5463 5455 5448 5441 5434 5427 5420 5412 5408 5406 5411 5417 5421 5426 5430 5432 5435 5439 5443 5452 5462 5471 5479
5566 5556 5548 5541 5531 5523 5516 5510 5507 5506 5504 5501 5498 5495 5490 5486 5482 5477 5470 5464 5456 5449 5443 5437 5429 5422 5414 5406 5402 5400 5404 5409 5413 5418 5424 5426 5429 5433 5439 5450 5461 5471 5479
5552 5544 5538 5532 5523 5516 5510 5507 5506 5505 5502 5499 5496 5492 5488 5483 5479 5473 5466 5458 5451 5444 5438 5432 5424 5415 5407 5399 5395 5392 5396 5400 5404 5411 5416 5419 5422 5429 5436 5446 5456 5465 5471
5540 5534 5529 5522 5515 5510 5506 5504 5504 5503 5500 5497 5494 5491 5488 5482 5476 5469 5461 5454 5447 5439 5432 5424 5416 5408 5399 5392 5387 5384 5386 5390 5395 5404 5409 5413 5418 5426 5434 5443 5452 5458 5463
5530 5525 5521 5516 5511 5508 5505 5503 5503 5502 5500 5497 5494 5491 5487 5481 5474 5465 5458 5451 5442 5433 5425 5416 5408 5400 5391 5385 5381 5379 5380 5383 5389 5397 5402 5407 5414 5423 5431 5440 5447 5454 5459
5523 5519 5516 5512 5509 5507 5505 5504 5503 5502 5499 5497 5494 5490 5486 5479 5471 5463 5456 5447 5437 5427 5417 5407 5398 5390 5383 5377 5375 5375 5377 5380 5385 5391 5396 5403 5411 5420 5428 5435 5444 5451 5455
5516 5514 5511 5509 5508 5508 5507 5506 5504 5501 5498 5496 5491 5488 5483 5474 5465 5460 5452 5441 5428 5415 5404 5393 5386 5379 5373 5369 5369 5370 5373 5375 5380 5385 5393 5400 5408 5416 5423 5430 5438 5445 5449
5511 5508 5506 5506 5507 5509 5509 5507 5503 5500 5496 5493 5486 5482 5478 5467 5460 5452 5440 5427 5408 5397 5387 5378 5374 5370 5365 5360 5360 5361 5364 5365 5370 5379 5389 5396 5404 5412 5419 5424 5431 5438 5443
5504 5503 5503 5505 5508 5510 5507 5505 5502 5498 5493 5489 5481 5476 5471 5461 5455 5447 5432 5414 5401 5389 5378 5370 5364 5363 5357 5355 5356 5358 5360 5362 5368 5377 5384 5390 5397 5405 5413 5419 5424 5430 5435